This demonstration page uses our WeatherBlox Daily Observations layout. Learn more.

41.55636, -103.73856

Hourly Observations for December 18, 2016

Temp ( °F °C ) Dew Point ( °F °C ) Humidity (%) Winds ( mph kmh ) Pressure ( in mb ) Visibility ( mi km ) Precip ( " mm )
12:53 am 00:53 Clear -22 -30 -28 -33.3 73 73 Calm 30.47 1032 10 16.0934 0 0
1:53 am 01:53 Clear -23 -30.6 -29 -33.9 73 73 NNW 7 11 30.47 1032 10 16.0934 0 0
2:53 am 02:53 Clear -21 -29.4 -27 -32.8 72 72 NW 7 11 30.47 1032 10 16.0934 0 0
3:53 am 03:53 Clear -21 -29.4 -27 -32.8 72 72 WNW 7 11 30.48 1032 10 16.0934 0 0
4:53 am 04:53 Clear -20 -28.9 -26 -32.2 73 73 NW 9 15 30.5 1033 10 16.0934 0 0
5:53 am 05:53 Clear -21 -29.4 -28 -33.3 69 69 W 5 7 30.53 1034 10 16.0934 0 0
6:53 am 06:53 Clear -21 -29.4 -27 -32.8 72 72 WNW 8 13 30.54 1034 10 16.0934 0 0
7:53 am 07:53 Sunny -19 -28.3 -26 -32.2 69 69 WNW 9 15 30.59 1036 10 16.0934 0 0
8:53 am 08:53 Sunny -15 -26.1 -23 -30.6 66 66 NNW 3 6 30.6 1036 10 16.0934 0 0
9:53 am 09:53 Sunny -7 -21.7 -16 -26.7 64 64 N 6 9 30.59 1036 10 16.0934 0 0
10:53 am 10:53 Sunny 3 -16.1 -9 -22.8 57 57 NW 5 7 30.56 1035 10 16.0934 0 0
11:53 am 11:53 Sunny 8 -13.3 -6 -21.1 52 52 Calm 30.55 1034 10 16.0934 0 0
12:53 pm 12:53 Sunny 12 -11.1 -3 -19.4 51 51 N 3 6 30.54 1034 10 16.0934 0 0
1:53 pm 13:53 Sunny 17 -8.3 -1 -18.3 45 45 NW 6 9 30.53 1034 10 16.0934 0 0
2:53 pm 14:53 Sunny 17 -8.3 -1 -18.3 45 45 W 5 7 30.54 1034 10 16.0934 0 0
3:53 pm 15:53 Sunny 16 -8.9 -1 -18.3 47 47 Calm 30.56 1035 10 16.0934 0 0
4:53 pm 16:53 Clear 4 -15.6 -5 -20.6 66 66 N 6 9 30.6 1036 10 16.0934 0 0
5:53 pm 17:53 Clear 6 -14.4 -4 -20 63 63 SSW 5 7 30.6 1036 10 16.0934 0 0
6:53 pm 18:53 Clear -2 -18.9 -9 -22.8 72 72 N 6 9 30.65 1038 10 16.0934 0 0
7:53 pm 19:53 Clear -3 -19.4 -9 -22.8 75 75 Calm 30.67 1039 10 16.0934 0 0
8:53 pm 20:53 Clear -4 -20 -11 -23.9 71 71 Calm 30.66 1038 10 16.0934 0 0
9:53 pm 21:53 Clear 0 -17.8 -8 -22.2 69 69 E 6 9 30.61 1037 10 16.0934 0 0
10:53 pm 22:53 Clear 2 -16.7 -6 -21.1 69 69 ESE 5 7 30.55 1035 10 16.0934 0 0
11:53 pm 23:53 Clear 0 -17.8 -8 -22.2 69 69 ESE 5 7 30.53 1034 10 16.0934 0 0

Powered by AerisWeather